Flag for Switzerland Weather past 2 weeks in Bern, Bern, Switzerland

Now
64 °F

Scattered showers. Broken clouds.


Feels Like: 64 °F
Forecast: 49 / 77 °F
Wind: 12 mph from South

Location: Bern / Belp

Current Time: Jul 24, 2014 at 10:56:54 AM

Latest Report: Jul 24, 2014 at 10:20 AM


Visibility: N/A

Pressure: 29.92 "Hg

Humidity: 83%

Dew point: 59 °F

Location of BernLocation

Historic Weather in Bern — Graph

°F

Bern temperature yesterday

Maximum temperature yesterday: 77 °F (at 2:20 PM)
Minimum temperature yesterday: 61 °F (at 4:20 AM)
Average temperature yesterday: 69 °F

Past Weeks' High & Low Weather Summary

 TemperatureHumidityPressure
High88 °F (Jul 18, 2:50 PM)100% (Jul 10, 11:20 AM)30.21 "Hg (Jul 10, 11:20 AM)
Low50 °F (Jul 10, 1:20 AM)29% (Jul 17, 6:20 PM)29.83 "Hg (Jul 10, 4:50 AM)
Average64 °F82%30.01 "Hg
* Reported Jul 9 9:50 AM — Jul 24 9:20 AM, Bern, Weather by CustomWeather, © 2014

Note: Actual official high and low records may vary slightly from our data, if they occured in-between our weather recording intervals... More about our weather records

Advertising

Bern weather history for previous 24 hours

 ConditionsComfort  
Time TempWeatherWind HumidityBarometerVisibility
9:20 AM
Jul 24
66 °FScattered showers. Partly sunny.2 mph83%29.92 "HgN/A
8:50 AM64 °FThundershowers. Scattered clouds.2 mph88%29.89 "HgN/A
8:20 AM63 °FBroken clouds.1 mph94%29.89 "HgN/A
7:50 AM63 °FBroken clouds.2 mph94%29.89 "HgN/A
7:20 AM63 °FPartly sunny.No wind94%29.89 "HgN/A
6:50 AM61 °FPassing clouds.No wind100%29.89 "Hg5 mi
6:20 AM61 °FPartly cloudy.No wind100%29.86 "HgN/A
5:50 AM61 °FPartly cloudy.No wind100%29.86 "HgN/A
5:20 AM61 °FPartly cloudy.2 mph100%29.89 "Hg4 mi
4:50 AM61 °FPassing clouds.2 mph100%29.86 "HgN/A
4:20 AM61 °FPassing clouds.1 mph100%29.86 "HgN/A
3:50 AM61 °FPassing clouds.1 mph94%29.86 "Hg6 mi
3:20 AM61 °FOvercast.2 mph100%29.86 "HgN/A
2:50 AM61 °FOvercast.1 mph94%29.86 "HgN/A
2:20 AM61 °FPassing clouds.1 mph94%29.89 "HgN/A
1:50 AM63 °FPassing clouds.1 mph94%29.89 "HgN/A
1:20 AM63 °FClear.1 mph94%29.89 "HgN/A
12:50 AM63 °FPartly cloudy.1 mph94%29.89 "HgN/A
12:20 AM64 °FOvercast.1 mph88%29.89 "HgN/A
11:50 PM
Jul 23
63 °FOvercast.3 mph94%29.89 "HgN/A
11:20 PM64 °FPassing clouds.2 mph94%29.89 "HgN/A
10:50 PM66 °FMostly cloudy.2 mph88%29.89 "HgN/A
10:20 PM70 °FPartly cloudy.2 mph73%29.92 "HgN/A
9:50 PM70 °FOvercast.2 mph73%29.92 "HgN/A
9:20 PM72 °FOvercast.No wind65%29.89 "HgN/A
8:50 PM72 °FOvercast.No wind69%29.89 "HgN/A
8:20 PM73 °FOvercast.2 mph65%29.89 "HgN/A
7:50 PM73 °FPartly sunny.3 mph65%29.89 "HgN/A
7:20 PM75 °FPartly sunny.6 mph61%29.89 "HgN/A
6:50 PM73 °FPartly sunny.5 mph65%29.89 "HgN/A
6:20 PM75 °FOvercast.5 mph61%29.89 "HgN/A
5:50 PM75 °FPartly sunny.8 mph61%29.89 "HgN/A
5:20 PM75 °FScattered clouds.7 mph61%29.89 "HgN/A
4:50 PM75 °FScattered clouds.8 mph61%29.89 "HgN/A
4:20 PM75 °FScattered clouds.9 mph61%29.92 "HgN/A
3:50 PM75 °FScattered clouds.8 mph65%29.92 "HgN/A
3:20 PM75 °FScattered clouds.10 mph57%29.92 "HgN/A
2:50 PM75 °FScattered clouds.8 mph61%29.92 "HgN/A
2:20 PM77 °FScattered clouds.7 mph65%29.92 "HgN/A
1:20 PM75 °FScattered clouds.9 mph65%29.92 "HgN/A
12:50 PM73 °FScattered clouds.12 mph69%29.92 "HgN/A
11:50 AM72 °FPartly sunny.3 mph73%29.95 "Hg5 mi
11:20 AM70 °FBroken clouds.2 mph78%29.95 "Hg5 mi
10:50 AM70 °FBroken clouds.5 mph78%29.95 "Hg5 mi
10:20 AM70 °FPartly sunny.2 mph78%29.95 "Hg4 mi
Weather by CustomWeather, © 2014

See weather overviewHow to use our weather pages